contact:dominique.lefevre@mio.osupytheas.fr, maurice.libes@osupytheas.fr, didier.mallarino@osupytheas.fr
Project:EMSO http://www.emso-fr.org/EMSO-France
Depth: 2436.0 m
Title:EMSO Ligure Ouest : Data MII capteur MICROCAT
DateTime_Computer,Latitude,Longitude,Temperature,Conductivity,Pressure,DateTime_Instrument
DateTime_Computer,Latitude,Longitude,degC,S m-1,dbar,DateTime_Instrument
2019-07-06T00:01:06Z,42.805,6.029,13.2970,4.60016,2469.923,2019-7-06T02:01:23Z
2019-07-06T00:04:09Z,42.805,6.029,13.2968,4.59994,2469.984,2019-7-06T02:04:26Z
2019-07-06T00:07:12Z,42.805,6.029,13.2966,4.60001,2469.947,2019-7-06T02:07:29Z
2019-07-06T00:10:14Z,42.805,6.029,13.2967,4.59991,2469.937,2019-7-06T02:10:32Z
2019-07-06T00:13:17Z,42.805,6.029,13.2974,4.59990,2469.96,2019-7-06T02:13:35Z
2019-07-06T00:16:20Z,42.805,6.029,13.2977,4.60012,2469.937,2019-7-06T02:16:38Z
2019-07-06T00:19:23Z,42.805,6.029,13.2972,4.59991,2469.937,2019-7-06T02:19:41Z
2019-07-06T00:22:26Z,42.805,6.029,13.2960,4.59996,2469.947,2019-7-06T02:22:44Z
2019-07-06T00:25:29Z,42.805,6.029,13.2965,4.59998,2469.947,2019-7-06T02:25:47Z
2019-07-06T00:28:32Z,42.805,6.029,13.2974,4.60023,2469.923,2019-7-06T02:28:50Z
2019-07-06T00:31:35Z,42.805,6.029,13.2969,4.59986,2469.9,2019-7-06T02:31:53Z
2019-07-06T00:34:38Z,42.805,6.029,13.2969,4.59994,2469.923,2019-7-06T02:34:56Z
2019-07-06T00:37:41Z,42.805,6.029,13.2965,4.59986,2469.947,2019-7-06T02:37:59Z
2019-07-06T00:40:44Z,42.805,6.029,13.2970,4.60001,2469.937,2019-7-06T02:41:02Z
2019-07-06T00:43:47Z,42.805,6.029,13.2968,4.60009,2469.937,2019-7-06T02:44:04Z
2019-07-06T00:46:50Z,42.805,6.029,13.2975,4.60006,2469.914,2019-7-06T02:47:07Z
2019-07-06T00:49:53Z,42.805,6.029,13.2966,4.60007,2469.923,2019-7-06T02:50:10Z
2019-07-06T00:52:56Z,42.805,6.029,13.2969,4.59989,2469.9,2019-7-06T02:53:13Z
2019-07-06T00:55:59Z,42.805,6.029,13.2972,4.60016,2469.914,2019-7-06T02:56:16Z
2019-07-06T00:59:02Z,42.805,6.029,13.2962,4.59978,2469.9,2019-7-06T02:59:19Z
2019-07-06T01:02:04Z,42.805,6.029,13.2964,4.59976,2469.914,2019-7-06T03:02:22Z
2019-07-06T01:05:07Z,42.805,6.029,13.2968,4.59985,2469.89,2019-7-06T03:05:25Z
2019-07-06T01:08:10Z,42.805,6.029,13.2974,4.60008,2469.923,2019-7-06T03:08:28Z
2019-07-06T01:11:13Z,42.805,6.029,13.2961,4.59986,2469.914,2019-7-06T03:11:31Z
2019-07-06T01:14:16Z,42.805,6.029,13.2967,4.60003,2469.914,2019-7-06T03:14:34Z
2019-07-06T01:17:19Z,42.805,6.029,13.2973,4.60008,2469.876,2019-7-06T03:17:37Z
2019-07-06T01:20:22Z,42.805,6.029,13.2969,4.60021,2469.89,2019-7-06T03:20:40Z
2019-07-06T01:23:25Z,42.805,6.029,13.2982,4.60005,2469.853,2019-7-06T03:23:43Z
2019-07-06T01:26:28Z,42.805,6.029,13.2964,4.59979,2469.853,2019-7-06T03:26:46Z
2019-07-06T01:29:31Z,42.805,6.029,13.2968,4.59983,2469.89,2019-7-06T03:29:49Z
2019-07-06T01:32:34Z,42.805,6.029,13.2961,4.60006,2469.876,2019-7-06T03:32:52Z
2019-07-06T01:35:37Z,42.805,6.029,13.2968,4.59982,2469.89,2019-7-06T03:35:54Z
2019-07-06T01:38:40Z,42.805,6.029,13.2971,4.59999,2469.89,2019-7-06T03:38:57Z
2019-07-06T01:41:43Z,42.805,6.029,13.2967,4.59976,2469.853,2019-7-06T03:42:00Z
2019-07-06T01:44:46Z,42.805,6.029,13.2974,4.59982,2469.89,2019-7-06T03:45:03Z
2019-07-06T01:47:49Z,42.805,6.029,13.2962,4.59979,2469.853,2019-7-06T03:48:06Z
2019-07-06T01:50:52Z,42.805,6.029,13.2960,4.59983,2469.853,2019-7-06T03:51:09Z
2019-07-06T01:53:54Z,42.805,6.029,13.2961,4.59980,2469.876,2019-7-06T03:54:12Z
2019-07-06T01:56:57Z,42.805,6.029,13.2960,4.59981,2469.863,2019-7-06T03:57:15Z
2019-07-06T02:00:00Z,42.805,6.029,13.2960,4.59992,2469.867,2019-7-06T04:00:18Z
2019-07-06T02:03:03Z,42.805,6.029,13.2961,4.59973,2469.867,2019-7-06T04:03:21Z
2019-07-06T02:06:06Z,42.805,6.029,13.2966,4.59992,2469.853,2019-7-06T04:06:24Z
2019-07-06T02:09:09Z,42.805,6.029,13.2964,4.59981,2469.844,2019-7-06T04:09:27Z
2019-07-06T02:12:12Z,42.805,6.029,13.2964,4.59983,2469.89,2019-7-06T04:12:30Z
2019-07-06T02:15:15Z,42.805,6.029,13.2962,4.59987,2469.844,2019-7-06T04:15:33Z
2019-07-06T02:18:18Z,42.805,6.029,13.2971,4.59989,2469.867,2019-7-06T04:18:36Z
2019-07-06T02:21:21Z,42.805,6.029,13.2958,4.59981,2469.844,2019-7-06T04:21:39Z
2019-07-06T02:24:24Z,42.805,6.029,13.2961,4.59975,2469.83,2019-7-06T04:24:42Z
2019-07-06T02:27:27Z,42.805,6.029,13.2966,4.59976,2469.867,2019-7-06T04:27:45Z
2019-07-06T02:30:30Z,42.805,6.029,13.2961,4.59973,2469.853,2019-7-06T04:30:47Z
2019-07-06T02:33:33Z,42.805,6.029,13.2965,4.59999,2469.821,2019-7-06T04:33:50Z
2019-07-06T02:36:36Z,42.805,6.029,13.2963,4.59986,2469.853,2019-7-06T04:36:53Z
2019-07-06T02:39:39Z,42.805,6.029,13.2971,4.59980,2469.844,2019-7-06T04:39:56Z
2019-07-06T02:42:42Z,42.805,6.029,13.2964,4.59983,2469.783,2019-7-06T04:42:59Z
2019-07-06T02:45:45Z,42.805,6.029,13.2968,4.60004,2469.806,2019-7-06T04:46:02Z
2019-07-06T02:48:47Z,42.805,6.029,13.2965,4.59983,2469.853,2019-7-06T04:49:05Z
2019-07-06T02:51:50Z,42.805,6.029,13.2959,4.59979,2469.83,2019-7-06T04:52:08Z
2019-07-06T02:54:53Z,42.805,6.029,13.2967,4.59994,2469.797,2019-7-06T04:55:11Z
2019-07-06T02:57:56Z,42.805,6.029,13.2967,4.60017,2469.83,2019-7-06T04:58:14Z
2019-07-06T03:00:59Z,42.805,6.029,13.2967,4.60009,2469.806,2019-7-06T05:01:17Z
2019-07-06T03:04:02Z,42.805,6.029,13.2967,4.60011,2469.806,2019-7-06T05:04:20Z
2019-07-06T03:07:05Z,42.805,6.029,13.2964,4.59986,2469.806,2019-7-06T05:07:23Z
2019-07-06T03:10:08Z,42.805,6.029,13.2957,4.59973,2469.773,2019-7-06T05:10:26Z
2019-07-06T03:13:11Z,42.805,6.029,13.2969,4.59980,2469.797,2019-7-06T05:13:29Z
2019-07-06T03:16:14Z,42.805,6.029,13.2976,4.59988,2469.806,2019-7-06T05:16:32Z
2019-07-06T03:19:17Z,42.805,6.029,13.2960,4.59985,2469.806,2019-7-06T05:19:35Z
2019-07-06T03:22:20Z,42.805,6.029,13.2971,4.59997,2469.821,2019-7-06T05:22:38Z
2019-07-06T03:25:23Z,42.805,6.029,13.2964,4.59985,2469.783,2019-7-06T05:25:40Z
2019-07-06T03:28:26Z,42.805,6.029,13.2965,4.59983,2469.821,2019-7-06T05:28:43Z
2019-07-06T03:31:29Z,42.805,6.029,13.2962,4.59972,2469.76,2019-7-06T05:31:46Z
2019-07-06T03:34:32Z,42.805,6.029,13.2964,4.59980,2469.83,2019-7-06T05:34:49Z
2019-07-06T03:37:35Z,42.805,6.029,13.2963,4.59982,2469.797,2019-7-06T05:37:52Z
2019-07-06T03:40:38Z,42.805,6.029,13.2968,4.59997,2469.806,2019-7-06T05:40:55Z
2019-07-06T03:43:40Z,42.805,6.029,13.2962,4.59996,2469.783,2019-7-06T05:43:58Z
2019-07-06T03:46:43Z,42.805,6.029,13.2964,4.59999,2469.821,2019-7-06T05:47:01Z
2019-07-06T03:49:46Z,42.805,6.029,13.2960,4.59985,2469.783,2019-7-06T05:50:04Z
2019-07-06T03:52:49Z,42.805,6.029,13.2964,4.59979,2469.783,2019-7-06T05:53:07Z
2019-07-06T03:55:52Z,42.805,6.029,13.2978,4.59987,2469.806,2019-7-06T05:56:10Z
2019-07-06T03:58:55Z,42.805,6.029,13.2973,4.59983,2469.806,2019-7-06T05:59:13Z
2019-07-06T04:01:58Z,42.805,6.029,13.2977,4.60022,2469.783,2019-7-06T06:02:16Z
2019-07-06T04:05:01Z,42.805,6.029,13.2979,4.60011,2469.783,2019-7-06T06:05:19Z
2019-07-06T04:08:04Z,42.805,6.029,13.2973,4.60011,2469.783,2019-7-06T06:08:22Z
2019-07-06T04:11:07Z,42.805,6.029,13.2968,4.59981,2469.783,2019-7-06T06:11:25Z
2019-07-06T04:14:10Z,42.805,6.029,13.2965,4.59990,2469.806,2019-7-06T06:14:28Z
2019-07-06T04:17:13Z,42.805,6.029,13.2967,4.60016,2469.76,2019-7-06T06:17:31Z
2019-07-06T04:20:16Z,42.805,6.029,13.2958,4.59983,2469.797,2019-7-06T06:20:33Z
2019-07-06T04:23:19Z,42.805,6.029,13.2971,4.59999,2469.76,2019-7-06T06:23:36Z
2019-07-06T04:26:22Z,42.805,6.029,13.2967,4.60006,2469.797,2019-7-06T06:26:39Z
2019-07-06T04:29:25Z,42.805,6.029,13.2964,4.59981,2469.797,2019-7-06T06:29:42Z
2019-07-06T04:32:28Z,42.805,6.029,13.2974,4.60007,2469.783,2019-7-06T06:32:45Z
2019-07-06T04:35:31Z,42.805,6.029,13.2970,4.59999,2469.76,2019-7-06T06:35:48Z
2019-07-06T04:38:33Z,42.805,6.029,13.2976,4.60015,2469.797,2019-7-06T06:38:51Z
2019-07-06T04:41:36Z,42.805,6.029,13.2970,4.60003,2469.76,2019-7-06T06:41:54Z
2019-07-06T04:44:39Z,42.805,6.029,13.2959,4.59974,2469.773,2019-7-06T06:44:57Z
2019-07-06T04:47:42Z,42.805,6.029,13.2965,4.59985,2469.76,2019-7-06T06:48:00Z
2019-07-06T04:50:45Z,42.805,6.029,13.2967,4.59977,2469.76,2019-7-06T06:51:03Z
2019-07-06T04:53:48Z,42.805,6.029,13.2971,4.59991,2469.76,2019-7-06T06:54:06Z
2019-07-06T04:56:51Z,42.805,6.029,13.2982,4.60016,2469.783,2019-7-06T06:57:09Z
2019-07-06T04:59:54Z,42.805,6.029,13.2973,4.60021,2469.75,2019-7-06T07:00:12Z
2019-07-06T05:02:57Z,42.805,6.029,13.2964,4.60000,2469.773,2019-7-06T07:03:15Z
2019-07-06T05:06:00Z,42.805,6.029,13.2972,4.59985,2469.821,2019-7-06T07:06:18Z
2019-07-06T05:09:03Z,42.805,6.029,13.2967,4.60012,2469.797,2019-7-06T07:09:21Z
2019-07-06T05:12:06Z,42.805,6.029,13.2967,4.60008,2469.773,2019-7-06T07:12:23Z
2019-07-06T05:15:09Z,42.805,6.029,13.2981,4.60006,2469.76,2019-7-06T07:15:26Z
2019-07-06T05:18:12Z,42.805,6.029,13.2961,4.59972,2469.797,2019-7-06T07:18:29Z
2019-07-06T05:21:15Z,42.805,6.029,13.2979,4.60014,2469.737,2019-7-06T07:21:32Z
2019-07-06T05:24:18Z,42.805,6.029,13.2961,4.60019,2469.737,2019-7-06T07:24:35Z
2019-07-06T05:27:21Z,42.805,6.029,13.2967,4.59993,2469.821,2019-7-06T07:27:38Z
2019-07-06T05:30:23Z,42.805,6.029,13.2974,4.59994,2469.797,2019-7-06T07:30:41Z
2019-07-06T05:33:26Z,42.805,6.029,13.2969,4.59981,2469.75,2019-7-06T07:33:44Z
2019-07-06T05:36:29Z,42.805,6.029,13.2974,4.60029,2469.75,2019-7-06T07:36:47Z
2019-07-06T05:39:32Z,42.805,6.029,13.2970,4.60001,2469.783,2019-7-06T07:39:50Z
2019-07-06T05:42:35Z,42.805,6.029,13.2961,4.59995,2469.783,2019-7-06T07:42:53Z
2019-07-06T05:45:38Z,42.805,6.029,13.2971,4.59990,2469.773,2019-7-06T07:45:56Z
2019-07-06T05:48:41Z,42.805,6.029,13.2968,4.60001,2469.783,2019-7-06T07:48:59Z
2019-07-06T05:51:44Z,42.805,6.029,13.2971,4.60004,2469.737,2019-7-06T07:52:02Z
2019-07-06T05:54:47Z,42.805,6.029,13.2970,4.59998,2469.76,2019-7-06T07:55:05Z
2019-07-06T05:57:50Z,42.805,6.029,13.2964,4.59988,2469.821,2019-7-06T07:58:08Z
2019-07-06T06:00:53Z,42.805,6.029,13.2967,4.59995,2469.783,2019-7-06T08:01:11Z
2019-07-06T06:03:56Z,42.805,6.029,13.2964,4.59999,2469.773,2019-7-06T08:04:14Z
2019-07-06T06:06:59Z,42.805,6.029,13.2976,4.59991,2469.783,2019-7-06T08:07:16Z
2019-07-06T06:10:02Z,42.805,6.029,13.2968,4.60001,2469.783,2019-7-06T08:10:19Z
2019-07-06T06:13:05Z,42.805,6.029,13.2964,4.60008,2469.821,2019-7-06T08:13:22Z
2019-07-06T06:16:08Z,42.805,6.029,13.2968,4.59996,2469.783,2019-7-06T08:16:25Z
2019-07-06T06:19:11Z,42.805,6.029,13.2967,4.59994,2469.76,2019-7-06T08:19:28Z
2019-07-06T06:22:14Z,42.805,6.029,13.2985,4.60011,2469.821,2019-7-06T08:22:31Z
2019-07-06T06:25:16Z,42.805,6.029,13.2968,4.59999,2469.821,2019-7-06T08:25:34Z
2019-07-06T06:28:19Z,42.805,6.029,13.2973,4.60011,2469.806,2019-7-06T08:28:37Z
2019-07-06T06:31:22Z,42.805,6.029,13.2963,4.59994,2469.797,2019-7-06T08:31:40Z
2019-07-06T06:34:25Z,42.805,6.029,13.2979,4.60030,2469.797,2019-7-06T08:34:43Z
2019-07-06T06:37:28Z,42.805,6.029,13.2980,4.59991,2469.783,2019-7-06T08:37:46Z
2019-07-06T06:40:31Z,42.805,6.029,13.2972,4.60004,2469.783,2019-7-06T08:40:49Z
2019-07-06T06:43:34Z,42.805,6.029,13.2980,4.60004,2469.806,2019-7-06T08:43:52Z
2019-07-06T06:46:37Z,42.805,6.029,13.2967,4.60000,2469.83,2019-7-06T08:46:55Z
2019-07-06T06:49:40Z,42.805,6.029,13.2964,4.60002,2469.821,2019-7-06T08:49:58Z
2019-07-06T06:52:43Z,42.805,6.029,13.2973,4.59992,2469.844,2019-7-06T08:53:01Z
2019-07-06T06:55:46Z,42.805,6.029,13.2964,4.60009,2469.83,2019-7-06T08:56:04Z
2019-07-06T06:58:49Z,42.805,6.029,13.2965,4.59996,2469.806,2019-7-06T08:59:07Z
2019-07-06T07:01:52Z,42.805,6.029,13.2971,4.60004,2469.797,2019-7-06T09:02:09Z
2019-07-06T07:04:55Z,42.805,6.029,13.2958,4.60019,2469.867,2019-7-06T09:05:12Z
2019-07-06T07:07:58Z,42.805,6.029,13.2990,4.60015,2469.83,2019-7-06T09:08:15Z
2019-07-06T07:11:01Z,42.805,6.029,13.2966,4.60009,2469.821,2019-7-06T09:11:18Z
2019-07-06T07:14:04Z,42.805,6.029,13.2964,4.59999,2469.83,2019-7-06T09:14:21Z
2019-07-06T07:17:06Z,42.805,6.029,13.2979,4.60019,2469.844,2019-7-06T09:17:24Z
2019-07-06T07:20:09Z,42.805,6.029,13.2977,4.60013,2469.783,2019-7-06T09:20:27Z
2019-07-06T07:23:12Z,42.805,6.029,13.2964,4.59997,2469.806,2019-7-06T09:23:30Z
2019-07-06T07:26:15Z,42.805,6.029,13.2968,4.59991,2469.867,2019-7-06T09:26:33Z
2019-07-06T07:29:18Z,42.805,6.029,13.2969,4.60023,2469.83,2019-7-06T09:29:36Z
2019-07-06T07:32:21Z,42.805,6.029,13.2983,4.59999,2469.83,2019-7-06T09:32:39Z
2019-07-06T07:35:24Z,42.805,6.029,13.2964,4.60001,2469.853,2019-7-06T09:35:42Z
2019-07-06T07:38:27Z,42.805,6.029,13.2974,4.60001,2469.83,2019-7-06T09:38:45Z
2019-07-06T07:41:30Z,42.805,6.029,13.2974,4.59996,2469.83,2019-7-06T09:41:48Z
2019-07-06T07:44:33Z,42.805,6.029,13.2970,4.59999,2469.876,2019-7-06T09:44:51Z
2019-07-06T07:47:36Z,42.805,6.029,13.2961,4.59991,2469.844,2019-7-06T09:47:54Z
2019-07-06T07:50:39Z,42.805,6.029,13.2966,4.59983,2469.914,2019-7-06T09:50:57Z
2019-07-06T07:53:42Z,42.805,6.029,13.2964,4.59996,2469.83,2019-7-06T09:54:00Z
2019-07-06T07:56:45Z,42.805,6.029,13.2970,4.60010,2469.876,2019-7-06T09:57:02Z
2019-07-06T07:59:48Z,42.805,6.029,13.2968,4.59988,2469.9,2019-7-06T10:00:05Z
2019-07-06T08:02:51Z,42.805,6.029,13.2963,4.59989,2469.9,2019-7-06T10:03:08Z
2019-07-06T08:05:54Z,42.805,6.029,13.2961,4.59989,2469.853,2019-7-06T10:06:11Z
2019-07-06T08:08:57Z,42.805,6.029,13.2967,4.59999,2469.914,2019-7-06T10:09:14Z
2019-07-06T08:11:59Z,42.805,6.029,13.2967,4.60001,2469.914,2019-7-06T10:12:17Z
2019-07-06T08:15:02Z,42.805,6.029,13.2970,4.60006,2469.89,2019-7-06T10:15:20Z
2019-07-06T08:18:05Z,42.805,6.029,13.2979,4.60030,2469.876,2019-7-06T10:18:23Z
2019-07-06T08:21:08Z,42.805,6.029,13.2971,4.60000,2469.876,2019-7-06T10:21:26Z
2019-07-06T08:24:11Z,42.805,6.029,13.2967,4.60011,2469.876,2019-7-06T10:24:29Z
2019-07-06T08:27:14Z,42.805,6.029,13.2965,4.60006,2469.853,2019-7-06T10:27:32Z
2019-07-06T08:30:17Z,42.805,6.029,13.2983,4.60010,2469.9,2019-7-06T10:30:35Z
2019-07-06T08:33:20Z,42.805,6.029,13.2963,4.59995,2469.867,2019-7-06T10:33:38Z
2019-07-06T08:36:23Z,42.805,6.029,13.2964,4.59999,2469.876,2019-7-06T10:36:41Z
2019-07-06T08:39:26Z,42.805,6.029,13.2972,4.60002,2469.89,2019-7-06T10:39:44Z
2019-07-06T08:42:29Z,42.805,6.029,13.2961,4.59986,2469.853,2019-7-06T10:42:47Z
2019-07-06T08:45:32Z,42.805,6.029,13.2964,4.59988,2469.853,2019-7-06T10:45:50Z
2019-07-06T08:48:35Z,42.805,6.029,13.2971,4.59995,2469.876,2019-7-06T10:48:53Z
2019-07-06T08:51:38Z,42.805,6.029,13.2966,4.59986,2469.867,2019-7-06T10:51:56Z
2019-07-06T08:54:41Z,42.805,6.029,13.2961,4.59979,2469.9,2019-7-06T10:54:58Z
2019-07-06T08:57:44Z,42.805,6.029,13.2966,4.59991,2469.9,2019-7-06T10:58:01Z
2019-07-06T09:00:47Z,42.805,6.029,13.2970,4.59993,2469.914,2019-7-06T11:01:04Z
2019-07-06T09:03:50Z,42.805,6.029,13.2970,4.60017,2469.89,2019-7-06T11:04:07Z
2019-07-06T09:06:53Z,42.805,6.029,13.2963,4.60011,2469.876,2019-7-06T11:07:10Z
2019-07-06T09:09:56Z,42.805,6.029,13.2968,4.59997,2469.89,2019-7-06T11:10:13Z
2019-07-06T09:12:58Z,42.805,6.029,13.2964,4.59989,2469.9,2019-7-06T11:13:16Z
2019-07-06T09:16:01Z,42.805,6.029,13.2966,4.59993,2469.9,2019-7-06T11:16:19Z
2019-07-06T09:19:04Z,42.805,6.029,13.2968,4.59986,2469.9,2019-7-06T11:19:22Z
2019-07-06T09:22:07Z,42.805,6.029,13.2963,4.59980,2469.9,2019-7-06T11:22:25Z
2019-07-06T09:25:10Z,42.805,6.029,13.2967,4.59977,2469.89,2019-7-06T11:25:28Z
2019-07-06T09:28:13Z,42.805,6.029,13.2961,4.59989,2469.876,2019-7-06T11:28:31Z
2019-07-06T09:31:16Z,42.805,6.029,13.2967,4.60000,2469.876,2019-7-06T11:31:34Z
2019-07-06T09:34:19Z,42.805,6.029,13.2962,4.60003,2469.83,2019-7-06T11:34:37Z
2019-07-06T09:37:22Z,42.805,6.029,13.2967,4.60000,2469.914,2019-7-06T11:37:40Z
2019-07-06T09:40:25Z,42.805,6.029,13.2968,4.60003,2469.876,2019-7-06T11:40:43Z
2019-07-06T09:43:28Z,42.805,6.029,13.2964,4.60001,2469.9,2019-7-06T11:43:46Z
2019-07-06T09:46:31Z,42.805,6.029,13.2969,4.59974,2469.9,2019-7-06T11:46:49Z
2019-07-06T09:49:34Z,42.805,6.029,13.2964,4.60003,2469.876,2019-7-06T11:49:52Z
2019-07-06T09:52:37Z,42.805,6.029,13.2967,4.60010,2469.89,2019-7-06T11:52:55Z
2019-07-06T09:55:40Z,42.805,6.029,13.2969,4.60011,2469.9,2019-7-06T11:55:57Z
2019-07-06T09:58:43Z,42.805,6.029,13.2967,4.60005,2469.9,2019-7-06T11:59:00Z
2019-07-06T10:01:46Z,42.805,6.029,13.2979,4.60012,2469.863,2019-7-06T12:02:03Z
2019-07-06T10:04:49Z,42.805,6.029,13.2973,4.59988,2469.876,2019-7-06T12:05:06Z
2019-07-06T10:07:52Z,42.805,6.029,13.2964,4.59996,2469.89,2019-7-06T12:08:09Z
2019-07-06T10:10:54Z,42.805,6.029,13.2963,4.59986,2469.89,2019-7-06T12:11:12Z
2019-07-06T10:13:57Z,42.805,6.029,13.2968,4.59993,2469.9,2019-7-06T12:14:15Z
2019-07-06T10:17:00Z,42.805,6.029,13.2972,4.59991,2469.853,2019-7-06T12:17:18Z
2019-07-06T10:20:03Z,42.805,6.029,13.2974,4.60003,2469.876,2019-7-06T12:20:21Z
2019-07-06T10:23:06Z,42.805,6.029,13.2968,4.60003,2469.9,2019-7-06T12:23:24Z
2019-07-06T10:26:09Z,42.805,6.029,13.2969,4.60005,2469.876,2019-7-06T12:26:27Z
2019-07-06T10:29:12Z,42.805,6.029,13.2968,4.59995,2469.89,2019-7-06T12:29:30Z
2019-07-06T10:32:15Z,42.805,6.029,13.2968,4.59994,2469.853,2019-7-06T12:32:33Z
2019-07-06T10:35:18Z,42.805,6.029,13.2979,4.59987,2469.89,2019-7-06T12:35:36Z
2019-07-06T10:38:21Z,42.805,6.029,13.2967,4.59991,2469.853,2019-7-06T12:38:39Z
2019-07-06T10:41:24Z,42.805,6.029,13.2976,4.59995,2469.876,2019-7-06T12:41:42Z
2019-07-06T10:44:27Z,42.805,6.029,13.2976,4.60004,2469.853,2019-7-06T12:44:45Z
2019-07-06T10:47:30Z,42.805,6.029,13.2962,4.59993,2469.876,2019-7-06T12:47:48Z
2019-07-06T10:50:33Z,42.805,6.029,13.2959,4.59995,2469.867,2019-7-06T12:50:51Z
2019-07-06T10:53:36Z,42.805,6.029,13.2968,4.59981,2469.853,2019-7-06T12:53:53Z
2019-07-06T10:56:39Z,42.805,6.029,13.2971,4.59985,2469.83,2019-7-06T12:56:56Z
2019-07-06T10:59:42Z,42.805,6.029,13.2961,4.59980,2469.853,2019-7-06T12:59:59Z
2019-07-06T11:02:45Z,42.805,6.029,13.2967,4.59983,2469.867,2019-7-06T13:03:02Z
2019-07-06T11:05:48Z,42.805,6.029,13.2967,4.59994,2469.867,2019-7-06T13:06:05Z
2019-07-06T11:08:51Z,42.805,6.029,13.2963,4.60004,2469.89,2019-7-06T13:09:08Z
2019-07-06T11:11:53Z,42.805,6.029,13.2964,4.59991,2469.876,2019-7-06T13:12:11Z
2019-07-06T11:14:56Z,42.805,6.029,13.2968,4.60011,2469.853,2019-7-06T13:15:14Z
2019-07-06T11:17:59Z,42.805,6.029,13.2987,4.60034,2469.853,2019-7-06T13:18:17Z
2019-07-06T11:21:02Z,42.805,6.029,13.2967,4.60026,2469.844,2019-7-06T13:21:20Z
2019-07-06T11:24:05Z,42.805,6.029,13.2971,4.59991,2469.853,2019-7-06T13:24:23Z
2019-07-06T11:27:08Z,42.805,6.029,13.2964,4.59991,2469.844,2019-7-06T13:27:26Z
2019-07-06T11:30:11Z,42.805,6.029,13.2961,4.59992,2469.867,2019-7-06T13:30:29Z
2019-07-06T11:33:14Z,42.805,6.029,13.2969,4.59999,2469.844,2019-7-06T13:33:32Z
2019-07-06T11:36:17Z,42.805,6.029,13.2974,4.59988,2469.853,2019-7-06T13:36:35Z
2019-07-06T11:39:20Z,42.805,6.029,13.2984,4.59993,2469.876,2019-7-06T13:39:38Z
2019-07-06T11:42:23Z,42.805,6.029,13.2974,4.60007,2469.853,2019-7-06T13:42:41Z
2019-07-06T11:45:26Z,42.805,6.029,13.2969,4.60014,2469.844,2019-7-06T13:45:44Z
2019-07-06T11:48:29Z,42.805,6.029,13.2979,4.59999,2469.806,2019-7-06T13:48:47Z
2019-07-06T11:51:32Z,42.805,6.029,13.2971,4.59998,2469.867,2019-7-06T13:51:50Z
2019-07-06T11:54:35Z,42.805,6.029,13.2974,4.60001,2469.853,2019-7-06T13:54:52Z
2019-07-06T11:57:38Z,42.805,6.029,13.2974,4.60035,2469.867,2019-7-06T13:57:55Z
2019-07-06T12:00:41Z,42.805,6.029,13.2980,4.59995,2469.844,2019-7-06T14:00:58Z
2019-07-06T12:03:44Z,42.805,6.029,13.2976,4.60001,2469.783,2019-7-06T14:04:01Z
2019-07-06T12:06:47Z,42.805,6.029,13.2979,4.60030,2469.89,2019-7-06T14:07:04Z
2019-07-06T12:09:49Z,42.805,6.029,13.2985,4.60022,2469.821,2019-7-06T14:10:07Z
2019-07-06T12:12:52Z,42.805,6.029,13.2968,4.60008,2469.806,2019-7-06T14:13:10Z
2019-07-06T12:15:55Z,42.805,6.029,13.2976,4.59999,2469.783,2019-7-06T14:16:13Z
2019-07-06T12:18:58Z,42.805,6.029,13.2982,4.59997,2469.821,2019-7-06T14:19:16Z
2019-07-06T12:22:01Z,42.805,6.029,13.2979,4.60033,2469.844,2019-7-06T14:22:19Z
2019-07-06T12:25:04Z,42.805,6.029,13.2978,4.60010,2469.844,2019-7-06T14:25:22Z
2019-07-06T12:28:07Z,42.805,6.029,13.2968,4.60005,2469.783,2019-7-06T14:28:25Z
2019-07-06T12:31:10Z,42.805,6.029,13.2965,4.59999,2469.783,2019-7-06T14:31:28Z
2019-07-06T12:34:13Z,42.805,6.029,13.2968,4.59981,2469.853,2019-7-06T14:34:31Z
2019-07-06T12:37:16Z,42.805,6.029,13.2976,4.59981,2469.821,2019-7-06T14:37:34Z
2019-07-06T12:40:19Z,42.805,6.029,13.2974,4.60022,2469.806,2019-7-06T14:40:37Z
2019-07-06T12:43:22Z,42.805,6.029,13.2963,4.60019,2469.844,2019-7-06T14:43:40Z
2019-07-06T12:46:25Z,42.805,6.029,13.2974,4.60013,2469.821,2019-7-06T14:46:43Z
2019-07-06T12:49:28Z,42.805,6.029,13.2979,4.60036,2469.806,2019-7-06T14:49:46Z
2019-07-06T12:52:31Z,42.805,6.029,13.2974,4.60001,2469.821,2019-7-06T14:52:48Z
2019-07-06T12:55:34Z,42.805,6.029,13.2966,4.60006,2469.783,2019-7-06T14:55:51Z
2019-07-06T12:58:37Z,42.805,6.029,13.2967,4.60028,2469.76,2019-7-06T14:58:54Z
2019-07-06T13:01:40Z,42.805,6.029,13.2965,4.60013,2469.797,2019-7-06T15:01:57Z
2019-07-06T13:04:43Z,42.805,6.029,13.2965,4.60016,2469.797,2019-7-06T15:05:00Z
2019-07-06T13:07:46Z,42.805,6.029,13.2967,4.60006,2469.783,2019-7-06T15:08:03Z
2019-07-06T13:10:48Z,42.805,6.029,13.2964,4.60007,2469.783,2019-7-06T15:11:06Z
2019-07-06T13:13:51Z,42.805,6.029,13.2971,4.60000,2469.821,2019-7-06T15:14:09Z
2019-07-06T13:16:54Z,42.805,6.029,13.2972,4.59995,2469.806,2019-7-06T15:17:12Z
2019-07-06T13:19:57Z,42.805,6.029,13.2973,4.60014,2469.797,2019-7-06T15:20:15Z
2019-07-06T13:23:00Z,42.805,6.029,13.2974,4.60013,2469.773,2019-7-06T15:23:18Z
2019-07-06T13:26:03Z,42.805,6.029,13.2971,4.60001,2469.76,2019-7-06T15:26:21Z
2019-07-06T13:29:06Z,42.805,6.029,13.2967,4.60001,2469.797,2019-7-06T15:29:24Z
2019-07-06T13:32:09Z,42.805,6.029,13.2968,4.60033,2469.773,2019-7-06T15:32:27Z
2019-07-06T13:35:12Z,42.805,6.029,13.2966,4.60021,2469.797,2019-7-06T15:35:30Z
2019-07-06T13:38:15Z,42.805,6.029,13.2962,4.59996,2469.773,2019-7-06T15:38:33Z
2019-07-06T13:41:18Z,42.805,6.029,13.2970,4.59996,2469.76,2019-7-06T15:41:36Z
2019-07-06T13:44:21Z,42.805,6.029,13.2966,4.60025,2469.797,2019-7-06T15:44:39Z
2019-07-06T13:47:24Z,42.805,6.029,13.2965,4.59993,2469.773,2019-7-06T15:47:42Z
2019-07-06T13:50:27Z,42.805,6.029,13.3000,4.60020,2469.783,2019-7-06T15:50:45Z
2019-07-06T13:53:30Z,42.805,6.029,13.2986,4.60036,2469.76,2019-7-06T15:53:47Z
2019-07-06T13:56:33Z,42.805,6.029,13.2975,4.60020,2469.783,2019-7-06T15:56:50Z
2019-07-06T13:59:36Z,42.805,6.029,13.2984,4.60011,2469.773,2019-7-06T15:59:53Z
2019-07-06T14:02:39Z,42.805,6.029,13.2977,4.60033,2469.76,2019-7-06T16:02:56Z
2019-07-06T14:05:42Z,42.805,6.029,13.2971,4.60009,2469.783,2019-7-06T16:05:59Z
2019-07-06T14:08:44Z,42.805,6.029,13.2982,4.60033,2469.773,2019-7-06T16:09:02Z
2019-07-06T14:11:47Z,42.805,6.029,13.2973,4.60028,2469.76,2019-7-06T16:12:05Z
2019-07-06T14:14:50Z,42.805,6.029,13.2982,4.60031,2469.75,2019-7-06T16:15:08Z
2019-07-06T14:17:53Z,42.805,6.029,13.2979,4.60014,2469.76,2019-7-06T16:18:11Z
2019-07-06T14:20:56Z,42.805,6.029,13.2980,4.60011,2469.75,2019-7-06T16:21:14Z
2019-07-06T14:23:59Z,42.805,6.029,13.2972,4.60003,2469.713,2019-7-06T16:24:17Z
2019-07-06T14:27:02Z,42.805,6.029,13.2968,4.60033,2469.76,2019-7-06T16:27:20Z
2019-07-06T14:30:05Z,42.805,6.029,13.2969,4.60027,2469.737,2019-7-06T16:30:23Z
2019-07-06T14:33:08Z,42.805,6.029,13.2967,4.60069,2469.773,2019-7-06T16:33:26Z
2019-07-06T14:36:11Z,42.805,6.029,13.2987,4.60051,2469.773,2019-7-06T16:36:29Z
2019-07-06T14:39:14Z,42.805,6.029,13.2976,4.60023,2469.704,2019-7-06T16:39:32Z
2019-07-06T14:42:17Z,42.805,6.029,13.2983,4.60011,2469.75,2019-7-06T16:42:35Z
2019-07-06T14:45:20Z,42.805,6.029,13.2993,4.60024,2469.727,2019-7-06T16:45:38Z
2019-07-06T14:48:23Z,42.805,6.029,13.2982,4.60014,2469.713,2019-7-06T16:48:41Z
2019-07-06T14:51:26Z,42.805,6.029,13.2978,4.60022,2469.737,2019-7-06T16:51:43Z
2019-07-06T14:54:29Z,42.805,6.029,13.2973,4.60066,2469.75,2019-7-06T16:54:46Z
2019-07-06T14:57:32Z,42.805,6.029,13.2981,4.60049,2469.76,2019-7-06T16:57:49Z
2019-07-06T15:00:35Z,42.805,6.029,13.2983,4.60001,2469.75,2019-7-06T17:00:52Z
2019-07-06T15:03:38Z,42.805,6.029,13.2978,4.60009,2469.76,2019-7-06T17:03:55Z
2019-07-06T15:06:41Z,42.805,6.029,13.2990,4.60004,2469.727,2019-7-06T17:06:58Z
2019-07-06T15:09:43Z,42.805,6.029,13.3003,4.60043,2469.76,2019-7-06T17:10:01Z
2019-07-06T15:12:46Z,42.805,6.029,13.2986,4.60022,2469.69,2019-7-06T17:13:04Z